Volver al catálogo

SL-8 DEB

ActivoPO
NORAD 27736·DEBRIS·🇷🇺 Russia

Lanzado Dec 17, 1981 desde Plesetsk Cosmodrome

Loading…

Próximos Pases (próximas 24 horas)

TLE

EnvejeciendoSource: Space-Track

Época: Sep 7, 2026, 17:17 UTC

1 27736U 81120H   26250.72048909  .00000045  00000-0  35696-3 0  9992
2 27736  82.9577 239.4336 0055196 161.6415 320.7495 12.15121936569613

Sigue SL-8 DEB en tiempo real con AllMySat

Download on the App Store